Regional Weather Roundup
Issued by NWS

Home | Current Version | Previous Version | Text Only | Print | Product List | Glossary Off
Versions: 1 2 3 4 5 6 7 8 9 10 11 12 13 14 15 16 17 18 19 20 21 22 23 24 25 26 27 28 29 30 31 32 33 34 35 36 37 38 39 40 41 42 43 44 45 46 47 48 49 50

000
ASUS43 KOAX 272251
RWRNE

WEATHER ROUNDUP FOR NEBRASKA
NATIONAL WEATHER SERVICE OMAHA NE
500 PM CST TUE JAN 27 2015

NOTES: SATELLITE DATA IS BEING USED TO AUGMENT CLOUD COVER ABOVE
       12000 FEET.
       "FAIR" INDICATES FEW OR NO CLOUDS BELOW 12,000 FEET WITH NO
       SIGNIFICANT WEATHER AND/OR OBSTRUCTIONS TO VISIBILITY.

  * THESE STATIONS DO NOT REPORT WEATHER SUCH AS RAIN...SNOW OR FOG.

NEZ001>004-019>022-054>056-280000-
NEBRASKA PANHANDLE

CITY           SKY/WX    TMP DP  RH WIND       PRES   REMARKS
KIMBALL        PTCLDY    68  29  23 S9        30.01S
$$

NEZ057>060-069>072-079>082-280000-
SOUTHWEST NEBRASKA

CITY           SKY/WX    TMP DP  RH WIND       PRES   REMARKS
LEXINGTON      CLEAR     72  32  23 S6        29.92F
OGALLALA       CLEAR     72  31  22 W6        29.95F
$$

NEZ005>010-023>029-035>040-094-280000-
NORTH CENTRAL NEBRASKA

CITY           SKY/WX    TMP DP  RH WIND       PRES   REMARKS
AINSWORTH      CLEAR     68  32  26 CALM      29.89F
O`NEILL        CLEAR     59  37  42 SE8       29.91F
THEDFORD       CLEAR     74  32  21 CALM      29.91F
$$

NEZ041-046>049-061>064-073>077-083>087-280000-
SOUTH CENTRAL NEBRASKA

CITY           SKY/WX    TMP DP  RH WIND       PRES   REMARKS
AURORA         CLEAR     61  32  34 S10       29.96S
HEBRON         CLEAR     63  31  30 SE12      29.96F
HOLDREGE       CLEAR     67  31  26 SW3       29.94S
KEARNEY *      CLEAR     66  34  30 S5        29.94S
YORK           CLEAR     59  34  38 S12       29.98R
$$

NEZ011>018-030>034-042>045-280000-
NORTHEAST NEBRASKA

CITY           SKY/WX    TMP DP  RH WIND       PRES   REMARKS
ALBION         CLEAR     56  34  42 SE13      29.95F
BLAIR          FAIR      52  32  46 E9        30.02S
COLUMBUS *     CLEAR     57  34  41 S9        30.00S
FREMONT        CLEAR     53  32  44 SE12      30.02S
$$

NEZ050>053-065>068-078-088>093-280000-
SOUTHEAST NEBRASKA

CITY           SKY/WX    TMP DP  RH WIND       PRES   REMARKS
BEATRICE       CLEAR     60  33  37 SE10G17   30.00R
NEBRASKA CITY  CLEAR     53  25  34 SE13      30.04S
PLATTSMOUTH    CLEAR     53  28  38 SE10      30.03S
$$

NEZ044-045-051>053-067-280000-
OMAHA AREA

CITY           SKY/WX    TMP DP  RH WIND       PRES   REMARKS
BLAIR          CLEAR     52  32  46 E9        30.02S
FREMONT        CLEAR     53  32  44 SE12      30.02S
MILLARD        CLEAR     54  33  45 SE10      30.03S
PLATTSMOUTH    CLEAR     53  28  38 SE10      30.03S
WAHOO          FAIR      55  30  38 SE14      30.01S
$$



USA.gov is the U.S. government's official web portal to all federal, state and local government web resources and services.